DW7779 Weather Reports


time (UTC)temp
F
wind
direction
speed
knots
gust
knots
rain 1hr
in
rain 24hr
in
rain mn
in
humidity
%
barometer
mb
20260902141552 48 2.6 5.2 0.00 0.00 0.00 81 1009.0
20260902140044 48 2.6 5.2 0.00 0.00 0.00 82 1009.3
20260902134545 48 2.6 3.5 0.00 0.00 0.00 82 1009.3
20260902133041 48 1.7 3.5 0.00 0.00 0.00 83 1009.4
20260902131539 48 0.9 1.7 0.00 0.00 0.00 82 1009.7
20260902130039 49 1.7 4.3 0.00 0.00 0.00 83 1009.8
20260902124535 49 0.9 2.6 0.00 0.00 0.00 85 1010.0
20260902123035 49 0.0 0.9 0.00 0.00 0.00 85 1010.1
20260902121538 50 0.0 0.0 0.00 0.00 0.00 84 1010.4
20260902120035 52 0.0 0.0 0.00 0.00 0.00 83 1010.6
20260902114536 52 0.0 0.9 0.00 0.00 0.00 83 1010.8
20260902113034 52 0.0 1.7 0.00 0.00 0.00 83 1010.9
20260902111532 52 0.0 0.9 0.00 0.00 0.00 83 1010.7
20260902110031 51 0.0 0.9 0.00 0.00 0.00 84 1010.7
20260902104534 52 0.0 1.7 0.00 0.01 0.00 84 1010.8
20260902103031 52 0.0 2.6 0.00 0.01 0.00 83 1010.8
20260902101530 51 1.7 4.3 0.00 0.01 0.00 84 1010.8
20260902100030 51 1.7 3.5 0.00 0.01 0.00 83 1010.7
20260902094529 51 0.9 3.5 0.00 0.01 0.00 82 1010.6
20260902093028 51 1.7 3.5 0.00 0.01 0.00 81 1010.5
20260902091529 51 0.0 2.6 0.00 0.01 0.00 82 1010.4
20260902090028 51 0.0 0.9 0.00 0.01 0.00 81 1010.3
20260902084531 51 0.0 0.9 0.00 0.01 0.00 80 1010.2
20260902083028 52 0.0 0.9 0.00 0.01 0.00 79 1010.1
20260902081526 53 0.0 0.9 0.00 0.01 0.00 78 1010.1
20260902080026 53 0.0 1.7 0.00 0.01 0.00 76 1010.2
20260902074525 55 0.0 0.0 0.00 0.01 0.00 74 1010.0
20260902073025 56 0.0 3.5 0.00 0.01 0.00 72 1009.9
20260902071525 57 0.0 1.7 0.00 0.01 0.00 70 1009.9
20260902070022 58 0.0 2.6 0.00 0.01 0.00 69 1009.9
20260902064524 59 0.0 7.0 0.00 0.01 0.00 67 1010.2
20260902063031 60 0.0 3.5 0.00 0.01 0.00 65 1010.2
20260902061520 59 1.7 7.0 0.00 0.01 0.00 66 1010.4
20260902060015 59 2.6 6.1 0.00 0.01 0.00 65 1010.7
20260902054517 59 3.5 7.0 0.00 0.01 0.00 64 1010.7
20260902053014 60 1.7 8.7 0.00 0.01 0.00 64 1010.9
20260902051513 60 1.7 7.8 0.00 0.01 0.00 62 1011.1
20260902050010 60 3.5 7.8 0.00 0.01 0.00 62 1011.3
20260902044513 60 1.7 7.8 0.00 0.01 0.00 64 1011.4
20260902043009 59 3.5 7.8 0.00 0.01 0.00 63 1011.5
20260902041506 59 3.5 12.2 0.00 0.01 0.00 63 1011.6
20260902040004 58 3.5 7.8 0.00 0.01 0.00 65 1011.8
20260902034502 59 0.9 5.2 0.00 0.01 0.00 65 1012.0
20260902033102 59 1.7 6.1 0.00 0.01 0.00 62 1012.1
20260902031603 58 2.6 6.1 0.00 0.01 0.00 64 1012.1
20260902030058 57 3.5 8.7 0.00 0.01 0.00 66 1012.3
20260902024557 57 3.5 8.7 0.00 0.01 0.00 65 1012.7
20260902023100 57 2.6 7.0 0.00 0.01 0.00 67 1013.0
20260902021554 57 1.7 6.1 0.00 0.01 0.00 66 1013.3
20260902020051 57 5.2 8.7 0.00 0.01 0.00 66 1013.6
20260902014555 56 2.6 10.4 0.00 0.01 0.00 67 1013.7
20260902013056 56 3.5 10.4 0.00 0.01 0.00 69 1013.8
20260902011552 56 2.6 7.0 0.00 0.01 0.00 67 1013.9
20260902010053 56 4.3 10.4 0.00 0.01 0.00 69 1014.0
20260902004552 56 5.2 9.6 0.00 0.01 0.00 67 1014.2
20260902003123 55 3.5 8.7 0.00 0.01 0.00 72 1014.2
20260902001546 55 3.5 7.0 0.00 0.01 0.00 69 1014.3
20260902000047 56 1.7 6.1 0.00 0.01 0.00 71 1014.4
20260901234544 55 2.6 7.0 0.00 0.01 0.00 72 1014.5
20260901233043 55 0.9 4.3 0.00 0.01 0.00 76 1014.6
20260901231552 53 1.7 5.2 0.00 0.01 0.00 78 1014.7
20260901230040 52 0.9 4.3 0.00 0.01 0.00 82 1014.7
20260901224543 51 2.6 5.2 0.00 0.01 0.00 85 1014.7
20260901223036 50 1.7 4.3 0.00 0.01 0.00 88 1014.6
20260901221541 49 0.9 3.5 0.00 0.01 0.00 91 1014.5
20260901220039 47 0.0 1.7 0.00 0.01 0.00 93 1014.4
20260901214535 47 0.0 1.7 0.00 0.02 0.00 92 1014.3
20260901213031 47 0.0 0.9 0.00 0.02 0.00 92 1014.0
20260901211529 46 0.0 0.9 0.00 0.02 0.00 93 1013.8
20260901210026 46 0.0 0.9 0.00 0.02 0.00 92 1013.7
20260901204527 47 0.0 0.9 0.00 0.02 0.00 92 1013.5
20260901203021 47 0.0 1.7 0.00 0.02 0.00 92 1013.3
20260901201518 48 0.0 1.7 0.00 0.02 0.00 92 1013.1
20260901200018 48 0.9 2.6 0.00 0.02 0.00 93 1013.0
20260901194514 48 0.0 1.7 0.00 0.02 0.00 92 1012.9
20260901193012 49 0.9 2.6 0.00 0.02 0.00 92 1012.8
20260901191510 50 0.0 3.5 0.00 0.02 0.00 92 1012.6
20260901190013 50 0.0 3.5 0.00 0.02 0.00 92 1012.5
20260901184505 50 0.0 2.6 0.00 0.02 0.00 92 1012.3
20260901183107 51 0.9 2.6 0.00 0.02 0.00 92 1012.2
20260901181600 51 0.0 3.5 0.00 0.02 0.00 91 1011.9
20260901180057 52 0.0 0.9 0.00 0.02 0.00 91 1011.9
20260901174556 52 0.0 1.7 0.00 0.02 0.00 92 1012.0
20260901173053 52 0.0 2.6 0.00 0.02 0.00 92 1012.0
20260901171613 52 0.0 2.6 0.00 0.02 0.00 92 1011.9
20260901170104 53 0.0 1.7 0.00 0.02 0.00 92 1011.9
20260901164607 53 0.9 2.6 0.00 0.02 0.00 92 1011.9
20260901163105 54 0.0 1.7 0.00 0.02 0.00 90 1012.0
20260901161544 55 0.0 3.5 0.00 0.02 0.00 89 1011.9
20260901160041 56 0.9 3.5 0.00 0.02 0.00 87 1011.7
20260901154548 58 0.9 5.2 0.00 0.02 0.00 86 1011.4
20260901153039 58 1.7 5.2 0.00 0.02 0.00 85 1011.2
20260901151535 58 2.6 7.0 0.00 0.02 0.00 85 1011.0
20260901150031 58 1.7 7.0 0.00 0.02 0.00 85 1011.1
20260901144529 59 1.7 5.2 0.00 0.02 0.00 85 1011.2
20260901143028 59 2.6 6.1 0.00 0.02 0.00 84 1011.0